Voltar ao catálogo

STARLINK-32834

AtivoComunicaçõesVLEO
NORAD 62875·PAYLOAD·🇺🇸 United States

Lançado Feb 1, 2025 de Vandenberg Space Force Base

Loading…

Próximas Passagens (próximas 24 horas)

TLE

AtualizadoSource: CelesTrak SupGP

Época: Sep 15, 2026, 02:40 UTC

1 62875C 25022X   26258.11159722  .00061536  00000+0  18181-2 0  2589
2 62875  53.1585 326.6134 0001205  93.9807 350.9376 15.34360140    17

Acompanhe STARLINK-32834 em tempo real com AllMySat

Download on the App Store